Time,TemperatureF,DewpointF,PressureIn,WindDirection,WindDirectionDegrees,WindSpeedMPH,WindSpeedGustMPH,Humidity,HourlyPrecipIn,Conditions,Clouds,dailyrainin,SolarRadiationWatts/m^2,SoftwareType,DateUTC
2013-08-12 00:01:00,56.9,54.0,30.02,NE,49,0.0,0.0,90,0.00,,---,0.00,0.00,VWS V14.01,2013-08-12 04:01:00,
2013-08-12 00:04:00,56.9,54.0,30.02,NE,49,0.0,0.0,90,0.00,,---,0.00,0.00,VWS V14.01,2013-08-12 04:04:00,
2013-08-12 00:09:00,57.0,54.1,30.02,NE,49,0.0,0.0,90,0.00,,---,0.00,0.00,VWS V14.01,2013-08-12 04:09:00,
2013-08-12 00:14:00,57.0,54.1,30.02,NE,49,0.0,0.0,90,0.00,,---,0.00,0.00,VWS V14.01,2013-08-12 04:14:00,
2013-08-12 00:19:00,57.0,54.1,30.02,NE,49,0.0,0.0,90,0.00,,---,0.00,0.00,VWS V14.01,2013-08-12 04:19:00,
2013-08-12 00:24:00,57.0,54.1,30.03,NE,49,0.0,0.0,90,0.00,,---,0.00,0.00,VWS V14.01,2013-08-12 04:24:00,
2013-08-12 00:29:00,56.9,54.0,30.03,NE,49,0.0,0.0,90,0.00,,---,0.00,0.00,VWS V14.01,2013-08-12 04:29:00,
2013-08-12 00:34:00,56.9,54.0,30.03,NE,49,0.0,0.0,90,0.00,,---,0.00,0.00,VWS V14.01,2013-08-12 04:34:00,
2013-08-12 00:39:00,56.9,54.0,30.03,NE,49,0.0,0.0,90,0.00,,---,0.00,0.00,VWS V14.01,2013-08-12 04:39:00,
2013-08-12 00:44:00,56.6,53.4,30.03,NE,49,0.0,0.0,89,0.00,,---,0.00,0.00,VWS V14.01,2013-08-12 04:44:00,
2013-08-12 00:49:00,56.3,53.4,30.03,NE,49,0.0,0.0,90,0.00,,---,0.00,0.00,VWS V14.01,2013-08-12 04:49:00,
2013-08-12 00:54:00,56.0,53.1,30.03,NE,49,0.0,0.0,90,0.00,,---,0.00,0.00,VWS V14.01,2013-08-12 04:54:00,
2013-08-12 00:59:00,55.9,53.3,30.02,NE,49,0.0,0.0,91,0.00,,---,0.00,0.00,VWS V14.01,2013-08-12 04:59:00,
2013-08-12 01:04:00,55.9,53.3,30.03,NE,49,0.0,0.0,91,0.00,,---,0.00,0.00,VWS V14.01,2013-08-12 05:04:00,
2013-08-12 01:09:00,55.9,53.3,30.03,NE,49,0.0,0.0,91,0.00,,---,0.00,0.00,VWS V14.01,2013-08-12 05:09:00,
2013-08-12 01:14:00,55.9,53.3,30.02,NE,49,0.0,0.0,91,0.00,,---,0.00,0.00,VWS V14.01,2013-08-12 05:14:00,
2013-08-12 01:19:00,55.9,53.3,30.02,NE,49,0.0,0.0,91,0.00,,---,0.00,0.00,VWS V14.01,2013-08-12 05:19:00,
2013-08-12 01:24:00,55.9,53.6,30.02,NE,49,0.0,0.0,92,0.00,,---,0.00,0.00,VWS V14.01,2013-08-12 05:24:00,
2013-08-12 01:29:00,55.9,53.6,30.02,NE,49,0.0,0.0,92,0.00,,---,0.00,0.00,VWS V14.01,2013-08-12 05:29:00,
2013-08-12 01:34:00,55.6,53.3,30.02,NE,49,0.0,0.0,92,0.00,,---,0.00,0.00,VWS V14.01,2013-08-12 05:34:00,
2013-08-12 01:39:00,55.6,53.6,30.02,NE,49,0.0,0.0,93,0.00,,---,0.00,0.00,VWS V14.01,2013-08-12 05:39:00,
2013-08-12 01:44:00,55.4,53.4,30.02,NE,49,0.0,0.0,93,0.00,,---,0.00,0.00,VWS V14.01,2013-08-12 05:44:00,
2013-08-12 01:49:00,55.4,53.7,30.02,NE,49,0.0,0.0,94,0.00,,---,0.00,0.00,VWS V14.01,2013-08-12 05:49:00,
2013-08-12 01:54:00,55.4,53.7,30.02,NE,49,0.0,0.0,94,0.00,,---,0.00,0.00,VWS V14.01,2013-08-12 05:54:00,
2013-08-12 01:59:00,55.4,53.7,30.02,NE,49,0.0,0.0,94,0.00,,---,0.00,0.00,VWS V14.01,2013-08-12 05:59:00,
2013-08-12 02:04:00,55.4,53.7,30.01,NE,49,0.0,0.0,94,0.00,,---,0.00,0.00,VWS V14.01,2013-08-12 06:04:00,
2013-08-12 02:09:00,55.4,53.7,30.01,NE,49,0.0,0.0,94,0.00,,---,0.00,0.00,VWS V14.01,2013-08-12 06:09:00,
2013-08-12 02:14:00,55.6,53.9,30.02,NE,49,0.0,0.0,94,0.00,,---,0.00,0.00,VWS V14.01,2013-08-12 06:14:00,
2013-08-12 02:19:00,55.6,53.9,30.01,NE,49,0.0,0.0,94,0.00,,---,0.00,0.00,VWS V14.01,2013-08-12 06:19:00,
2013-08-12 02:24:00,55.7,54.0,30.02,NE,49,0.0,0.0,94,0.00,,---,0.00,0.00,VWS V14.01,2013-08-12 06:24:00,
2013-08-12 02:29:00,55.6,53.9,30.02,NE,49,0.0,0.0,94,0.00,,---,0.00,0.00,VWS V14.01,2013-08-12 06:29:00,
2013-08-12 02:34:00,55.6,53.9,30.01,NE,49,0.0,0.0,94,0.00,,---,0.00,0.00,VWS V14.01,2013-08-12 06:34:00,
2013-08-12 02:39:00,55.7,54.0,30.01,NE,49,0.0,0.0,94,0.00,,---,0.00,0.00,VWS V14.01,2013-08-12 06:39:00,
2013-08-12 02:44:00,55.7,54.0,30.01,NE,49,0.0,0.0,94,0.00,,---,0.00,0.00,VWS V14.01,2013-08-12 06:44:00,
2013-08-12 02:49:00,55.9,54.2,30.01,NE,49,0.0,0.0,94,0.00,,---,0.00,0.00,VWS V14.01,2013-08-12 06:49:00,
2013-08-12 02:54:00,55.9,54.2,30.01,NE,49,0.0,0.0,94,0.00,,---,0.00,0.00,VWS V14.01,2013-08-12 06:54:00,
2013-08-12 02:59:00,56.0,54.3,30.01,NE,49,0.0,0.0,94,0.00,,---,0.00,0.00,VWS V14.01,2013-08-12 06:59:00,
2013-08-12 03:04:00,56.2,54.5,30.01,NE,49,0.0,0.0,94,0.00,,---,0.00,0.00,VWS V14.01,2013-08-12 07:04:00,
2013-08-12 03:09:00,56.2,54.2,30.01,NE,49,0.0,0.0,93,0.00,,---,0.00,0.00,VWS V14.01,2013-08-12 07:09:00,
2013-08-12 03:14:00,56.2,54.2,30.01,NE,49,0.0,0.0,93,0.00,,---,0.00,0.00,VWS V14.01,2013-08-12 07:14:00,
2013-08-12 03:19:00,56.2,54.5,30.01,NE,49,0.0,0.0,94,0.00,,---,0.00,0.00,VWS V14.01,2013-08-12 07:19:00,
2013-08-12 03:24:00,56.3,54.6,30.01,NE,49,0.0,0.0,94,0.00,,---,0.00,0.00,VWS V14.01,2013-08-12 07:24:00,
2013-08-12 03:29:00,56.3,54.6,30.01,NE,49,0.0,0.0,94,0.00,,---,0.00,0.00,VWS V14.01,2013-08-12 07:29:00,
2013-08-12 03:34:00,56.3,54.3,30.01,NE,49,0.0,0.0,93,0.00,,---,0.00,0.00,VWS V14.01,2013-08-12 07:34:00,
2013-08-12 03:39:00,56.5,54.8,30.01,NE,49,0.0,0.0,94,0.00,,---,0.00,0.00,VWS V14.01,2013-08-12 07:39:00,
2013-08-12 03:44:00,56.5,54.8,30.01,NE,49,0.0,0.0,94,0.00,,---,0.00,0.00,VWS V14.01,2013-08-12 07:44:00,
2013-08-12 03:49:00,56.6,54.9,30.01,NE,49,0.0,0.0,94,0.00,,---,0.00,0.00,VWS V14.01,2013-08-12 07:49:00,
2013-08-12 03:54:00,56.7,55.0,30.01,NE,49,0.0,0.0,94,0.00,,---,0.00,0.00,VWS V14.01,2013-08-12 07:54:00,
2013-08-12 03:59:00,56.9,55.2,30.01,NE,49,0.0,0.0,94,0.00,,---,0.00,0.00,VWS V14.01,2013-08-12 07:59:00,
2013-08-12 04:04:00,56.9,55.2,30.01,NE,49,0.0,0.0,94,0.00,,---,0.00,0.00,VWS V14.01,2013-08-12 08:04:00,
2013-08-12 04:09:00,56.9,55.2,30.01,NE,49,0.0,0.0,94,0.00,,---,0.00,0.00,VWS V14.01,2013-08-12 08:09:00,
2013-08-12 04:14:00,56.9,54.9,30.01,NE,49,0.0,0.0,93,0.00,,---,0.00,0.00,VWS V14.01,2013-08-12 08:14:00,
2013-08-12 04:19:00,56.9,54.9,30.01,NE,49,0.0,0.0,93,0.00,,---,0.00,0.00,VWS V14.01,2013-08-12 08:19:00,
2013-08-12 04:24:00,56.7,54.7,30.01,NE,49,0.0,0.0,93,0.00,,---,0.00,0.00,VWS V14.01,2013-08-12 08:24:00,
2013-08-12 04:29:00,56.6,54.6,30.01,NE,49,0.0,0.0,93,0.00,,---,0.00,0.00,VWS V14.01,2013-08-12 08:29:00,
2013-08-12 04:34:00,56.3,54.3,30.01,NE,49,0.0,0.0,93,0.00,,---,0.00,0.00,VWS V14.01,2013-08-12 08:34:00,
2013-08-12 04:39:00,56.2,54.2,30.01,NE,49,0.0,0.0,93,0.00,,---,0.00,0.00,VWS V14.01,2013-08-12 08:39:00,
2013-08-12 04:44:00,55.9,54.2,30.01,NE,49,0.0,0.0,94,0.00,,---,0.00,0.00,VWS V14.01,2013-08-12 08:44:00,
2013-08-12 04:49:00,55.7,54.0,30.01,NE,49,0.0,0.0,94,0.00,,---,0.00,0.00,VWS V14.01,2013-08-12 08:49:00,
2013-08-12 04:54:00,55.7,54.0,30.01,NE,49,0.0,0.0,94,0.00,,---,0.00,0.00,VWS V14.01,2013-08-12 08:54:00,
2013-08-12 04:59:00,55.6,53.9,30.01,NE,49,0.0,0.0,94,0.00,,---,0.00,0.00,VWS V14.01,2013-08-12 08:59:00,
2013-08-12 05:04:00,55.6,53.9,30.01,NE,49,0.0,0.0,94,0.00,,---,0.00,0.00,VWS V14.01,2013-08-12 09:04:00,
2013-08-12 05:09:00,55.6,54.2,30.01,NE,49,0.0,0.0,95,0.00,,---,0.00,0.00,VWS V14.01,2013-08-12 09:09:00,
2013-08-12 05:14:00,55.4,53.7,30.01,NE,49,0.0,0.0,94,0.00,,---,0.00,0.00,VWS V14.01,2013-08-12 09:14:00,
2013-08-12 05:19:00,55.3,53.9,30.01,NE,49,0.0,0.0,95,0.00,,---,0.00,0.00,VWS V14.01,2013-08-12 09:19:00,
2013-08-12 05:24:00,55.1,53.7,30.01,NE,49,0.0,0.0,95,0.00,,---,0.00,0.00,VWS V14.01,2013-08-12 09:24:00,
2013-08-12 05:29:00,55.1,54.0,30.01,NE,49,0.0,0.0,96,0.00,,---,0.00,0.00,VWS V14.01,2013-08-12 09:29:00,
2013-08-12 05:34:00,55.3,54.2,30.00,NE,49,0.0,0.0,96,0.00,,---,0.00,0.00,VWS V14.01,2013-08-12 09:34:00,
2013-08-12 05:39:00,55.6,54.5,30.00,NE,49,0.0,0.0,96,0.00,,---,0.00,0.00,VWS V14.01,2013-08-12 09:39:00,
2013-08-12 05:44:00,55.6,54.5,30.00,NE,49,0.0,0.0,96,0.00,,---,0.00,0.00,VWS V14.01,2013-08-12 09:44:00,
2013-08-12 05:49:00,55.7,54.6,30.01,NE,49,0.0,0.0,96,0.00,,---,0.00,0.00,VWS V14.01,2013-08-12 09:49:00,
2013-08-12 05:54:00,55.9,54.8,30.01,NE,49,0.0,0.0,96,0.00,,---,0.00,0.00,VWS V14.01,2013-08-12 09:54:00,
2013-08-12 05:59:00,55.7,54.6,30.01,NE,49,0.0,0.0,96,0.00,,---,0.00,5.00,VWS V14.01,2013-08-12 09:59:00,
2013-08-12 06:04:00,55.7,54.6,30.01,NE,49,0.0,0.0,96,0.00,,---,0.00,7.00,VWS V14.01,2013-08-12 10:04:00,
2013-08-12 06:09:00,55.6,54.5,30.01,NE,49,0.0,0.0,96,0.00,,---,0.00,11.00,VWS V14.01,2013-08-12 10:09:00,
2013-08-12 06:14:00,55.6,54.5,30.01,NE,49,0.0,0.0,96,0.00,,---,0.00,11.00,VWS V14.01,2013-08-12 10:14:00,
2013-08-12 06:19:00,55.4,54.3,30.01,NE,49,0.0,0.0,96,0.00,,---,0.00,11.00,VWS V14.01,2013-08-12 10:19:00,
2013-08-12 06:24:00,55.4,54.3,30.01,NE,49,0.0,0.0,96,0.00,,---,0.00,11.00,VWS V14.01,2013-08-12 10:24:00,
2013-08-12 06:29:00,55.3,54.2,30.01,NE,49,0.0,0.0,96,0.00,,---,0.00,14.00,VWS V14.01,2013-08-12 10:29:00,
2013-08-12 06:35:00,55.1,54.0,30.01,NE,49,0.0,0.0,96,0.00,,---,0.00,16.00,VWS V14.01,2013-08-12 10:35:00,
2013-08-12 06:40:00,55.0,53.9,30.01,NE,49,0.0,0.0,96,0.00,,---,0.00,19.00,VWS V14.01,2013-08-12 10:40:00,
2013-08-12 06:46:00,55.1,54.0,30.01,NE,49,0.0,0.0,96,0.00,,---,0.00,35.00,VWS V14.01,2013-08-12 10:46:00,
2013-08-12 06:51:00,55.3,54.2,30.01,NE,49,0.0,0.0,96,0.00,,---,0.00,47.00,VWS V14.01,2013-08-12 10:51:00,
2013-08-12 06:56:00,55.3,54.2,30.02,NE,49,0.0,0.0,96,0.00,,---,0.00,32.00,VWS V14.01,2013-08-12 10:56:00,
2013-08-12 07:01:00,55.7,54.9,30.02,NE,49,0.0,0.0,97,0.00,,---,0.00,40.00,VWS V14.01,2013-08-12 11:01:00,
2013-08-12 07:06:00,55.9,54.8,30.02,NE,49,0.0,0.0,96,0.00,,---,0.00,46.00,VWS V14.01,2013-08-12 11:06:00,
2013-08-12 07:11:00,55.9,54.8,30.02,NE,49,0.0,0.0,96,0.00,,---,0.00,40.00,VWS V14.01,2013-08-12 11:11:00,
2013-08-12 07:16:00,56.0,54.9,30.02,NE,49,0.0,0.0,96,0.00,,---,0.00,28.00,VWS V14.01,2013-08-12 11:16:00,
2013-08-12 07:21:00,56.5,55.4,30.02,NE,49,0.0,0.0,96,0.00,,---,0.00,37.00,VWS V14.01,2013-08-12 11:21:00,
2013-08-12 07:26:00,56.3,54.9,30.02,NE,49,0.0,0.0,95,0.00,,---,0.00,40.00,VWS V14.01,2013-08-12 11:26:00,
2013-08-12 07:31:00,56.7,55.6,30.02,NE,49,0.0,0.0,96,0.00,,---,0.00,46.00,VWS V14.01,2013-08-12 11:31:00,
2013-08-12 07:36:00,57.0,55.6,30.02,NE,49,0.0,0.0,95,0.00,,---,0.00,77.00,VWS V14.01,2013-08-12 11:36:00,
2013-08-12 07:41:00,57.5,56.1,30.02,NE,49,0.0,0.0,95,0.00,,---,0.00,113.00,VWS V14.01,2013-08-12 11:41:00,
2013-08-12 07:46:00,58.1,56.7,30.02,NE,49,0.0,0.0,95,0.00,,---,0.00,91.00,VWS V14.01,2013-08-12 11:46:00,
2013-08-12 07:51:00,58.6,56.6,30.02,NE,49,0.0,0.0,93,0.00,,---,0.00,100.00,VWS V14.01,2013-08-12 11:51:00,
2013-08-12 07:56:00,58.7,56.4,30.02,NE,49,0.0,0.0,92,0.00,,---,0.00,97.00,VWS V14.01,2013-08-12 11:56:00,
2013-08-12 08:01:00,59.2,56.6,30.02,NE,49,0.0,0.0,91,0.00,,---,0.00,69.00,VWS V14.01,2013-08-12 12:01:00,
2013-08-12 08:06:00,59.3,56.1,30.02,NE,49,0.0,0.0,89,0.00,,---,0.00,46.00,VWS V14.01,2013-08-12 12:06:00,
2013-08-12 08:11:00,59.3,56.1,30.02,NE,49,0.0,0.0,89,0.00,,---,0.00,37.00,VWS V14.01,2013-08-12 12:11:00,
2013-08-12 08:16:00,59.2,56.0,30.02,NE,49,0.0,0.0,89,0.00,,---,0.00,49.00,VWS V14.01,2013-08-12 12:16:00,
2013-08-12 08:21:00,59.2,56.3,30.02,NE,49,0.0,0.0,90,0.00,,---,0.00,174.00,VWS V14.01,2013-08-12 12:21:00,
2013-08-12 08:26:00,59.6,56.4,30.02,NE,49,0.0,0.0,89,0.00,,---,0.00,318.00,VWS V14.01,2013-08-12 12:26:00,
2013-08-12 08:31:00,60.4,56.2,30.02,NE,49,0.0,0.0,86,0.00,,---,0.00,334.00,VWS V14.01,2013-08-12 12:31:00,
2013-08-12 08:36:00,60.9,56.0,30.02,NE,49,0.0,0.0,84,0.00,,---,0.00,102.00,VWS V14.01,2013-08-12 12:36:00,
2013-08-12 08:41:00,61.5,56.6,30.02,NE,49,0.0,0.0,84,0.00,,---,0.00,70.00,VWS V14.01,2013-08-12 12:41:00,
2013-08-12 08:46:00,61.8,56.2,30.02,NE,48,0.0,0.0,82,0.00,,---,0.00,58.00,VWS V14.01,2013-08-12 12:46:00,
2013-08-12 08:51:00,62.0,56.1,30.01,NE,49,0.0,0.0,81,0.00,,---,0.00,70.00,VWS V14.01,2013-08-12 12:51:00,
2013-08-12 08:56:00,62.4,56.5,30.01,NE,48,0.0,0.0,81,0.00,,---,0.00,56.00,VWS V14.01,2013-08-12 12:56:00,
2013-08-12 09:01:00,62.9,56.6,30.01,NE,48,0.0,0.0,80,0.00,,---,0.00,204.00,VWS V14.01,2013-08-12 13:01:00,
2013-08-12 09:06:00,63.2,56.9,30.01,NE,48,0.0,0.0,80,0.00,,---,0.00,97.00,VWS V14.01,2013-08-12 13:06:00,
2013-08-12 09:11:00,63.5,57.2,30.01,NE,48,0.0,0.0,80,0.00,,---,0.00,107.00,VWS V14.01,2013-08-12 13:11:00,
2013-08-12 09:16:00,63.9,56.9,30.01,NE,48,0.0,0.0,78,0.00,,---,0.00,193.00,VWS V14.01,2013-08-12 13:16:00,
2013-08-12 09:21:00,64.5,56.0,30.01,NNE,28,0.0,0.0,74,0.00,,---,0.00,387.00,VWS V14.01,2013-08-12 13:21:00,
2013-08-12 09:26:00,65.3,57.2,30.01,NNE,28,0.0,0.0,75,0.00,,---,0.00,591.00,VWS V14.01,2013-08-12 13:26:00,
2013-08-12 09:31:00,66.1,57.6,30.01,NNE,28,0.0,0.0,74,0.00,,---,0.00,606.00,VWS V14.01,2013-08-12 13:31:00,
2013-08-12 09:36:00,66.4,57.5,30.01,NNE,32,0.0,0.0,73,0.00,,---,0.00,624.00,VWS V14.01,2013-08-12 13:36:00,
2013-08-12 09:41:00,66.6,57.3,30.01,NNE,32,0.0,0.0,72,0.00,,---,0.00,640.00,VWS V14.01,2013-08-12 13:41:00,
2013-08-12 09:46:00,66.9,58.0,30.01,NE,53,0.0,0.0,73,0.00,,---,0.00,656.00,VWS V14.01,2013-08-12 13:46:00,
2013-08-12 09:51:00,67.1,56.6,30.01,NE,53,0.0,0.0,69,0.00,,---,0.00,670.00,VWS V14.01,2013-08-12 13:51:00,
2013-08-12 09:56:00,67.8,58.1,30.01,NE,53,0.0,0.0,71,0.00,,---,0.00,684.00,VWS V14.01,2013-08-12 13:56:00,
2013-08-12 10:01:00,68.1,58.3,30.01,NE,53,0.0,1.0,71,0.00,,---,0.00,701.00,VWS V14.01,2013-08-12 14:01:00,
2013-08-12 10:06:00,68.3,56.5,30.01,NE,55,0.0,0.0,66,0.00,,---,0.00,714.00,VWS V14.01,2013-08-12 14:06:00,
2013-08-12 10:11:00,69.3,58.3,30.01,NE,55,0.0,0.0,68,0.00,,---,0.00,722.00,VWS V14.01,2013-08-12 14:11:00,
2013-08-12 10:16:00,69.8,57.9,30.00,ENE,59,0.0,0.0,66,0.00,,---,0.00,737.00,VWS V14.01,2013-08-12 14:16:00,
2013-08-12 10:21:00,70.4,58.9,30.00,WNW,300,0.0,0.0,67,0.00,,---,0.00,745.00,VWS V14.01,2013-08-12 14:21:00,
2013-08-12 10:26:00,70.6,55.1,30.00,NNW,329,0.0,0.0,58,0.00,,---,0.00,758.00,VWS V14.01,2013-08-12 14:26:00,
2013-08-12 10:31:00,70.9,58.6,30.00,NNW,329,0.0,1.0,65,0.00,,---,0.00,763.00,VWS V14.01,2013-08-12 14:31:00,
2013-08-12 10:36:00,71.1,59.2,30.00,NNW,330,0.0,0.0,66,0.00,,---,0.00,775.00,VWS V14.01,2013-08-12 14:36:00,
2013-08-12 10:41:00,71.3,58.9,30.00,North,351,0.0,0.0,65,0.00,,---,0.00,788.00,VWS V14.01,2013-08-12 14:41:00,
2013-08-12 10:46:00,70.6,55.6,30.00,NNW,334,0.0,0.0,59,0.00,,---,0.00,793.00,VWS V14.01,2013-08-12 14:46:00,
2013-08-12 10:51:00,70.9,58.1,30.00,NNW,334,0.0,0.0,64,0.00,,---,0.00,809.00,VWS V14.01,2013-08-12 14:51:00,
2013-08-12 10:56:00,70.9,59.0,30.00,NE,34,0.0,0.0,66,0.00,,---,0.00,819.00,VWS V14.01,2013-08-12 14:56:00,
2013-08-12 11:01:00,70.6,55.6,30.00,NNE,14,0.0,1.0,59,0.00,,---,0.00,837.00,VWS V14.01,2013-08-12 15:01:00,
2013-08-12 11:06:00,72.0,60.5,30.00,North,355,0.0,0.0,67,0.00,,---,0.00,930.00,VWS V14.01,2013-08-12 15:06:00,
2013-08-12 11:11:00,72.0,56.9,30.00,North,350,0.0,0.0,59,0.00,,---,0.00,872.00,VWS V14.01,2013-08-12 15:11:00,
2013-08-12 11:16:00,71.5,56.9,30.00,North,350,0.0,0.0,60,0.00,,---,0.00,872.00,VWS V14.01,2013-08-12 15:16:00,
2013-08-12 11:21:00,71.1,58.3,30.00,North,350,0.0,0.0,64,0.00,,---,0.00,387.00,VWS V14.01,2013-08-12 15:21:00,
2013-08-12 11:26:00,70.6,58.3,29.99,North,360,0.0,0.0,65,0.00,,---,0.00,160.00,VWS V14.01,2013-08-12 15:26:00,
2013-08-12 11:31:00,71.5,56.9,29.99,North,360,0.0,0.0,60,0.00,,---,0.00,1065.00,VWS V14.01,2013-08-12 15:31:00,
2013-08-12 11:36:00,70.9,57.7,29.99,NE,52,0.0,1.0,63,0.00,,---,0.00,264.00,VWS V14.01,2013-08-12 15:36:00,
2013-08-12 11:41:00,70.8,59.7,29.99,NE,54,0.0,1.0,68,0.00,,---,0.00,1009.00,VWS V14.01,2013-08-12 15:41:00,
2013-08-12 11:46:00,71.6,59.7,29.98,NE,54,0.0,1.0,66,0.00,,---,0.00,990.00,VWS V14.01,2013-08-12 15:46:00,
2013-08-12 11:51:00,72.8,59.9,29.98,NE,54,0.0,0.0,64,0.00,,---,0.00,918.00,VWS V14.01,2013-08-12 15:51:00,
2013-08-12 11:57:00,73.5,57.8,29.98,NE,54,0.0,0.0,58,0.00,,---,0.00,933.00,VWS V14.01,2013-08-12 15:57:00,
2013-08-12 12:02:00,73.9,58.7,29.99,ENE,59,0.0,0.0,59,0.00,,---,0.00,963.00,VWS V14.01,2013-08-12 16:02:00,
2013-08-12 12:07:00,74.0,57.8,29.99,North,5,0.0,0.0,57,0.00,,---,0.00,988.00,VWS V14.01,2013-08-12 16:07:00,
2013-08-12 12:12:00,73.2,56.6,29.98,North,5,0.0,0.0,56,0.00,,---,0.00,311.00,VWS V14.01,2013-08-12 16:12:00,
2013-08-12 12:17:00,73.0,58.3,29.98,North,9,0.0,0.0,60,0.00,,---,0.00,1035.00,VWS V14.01,2013-08-12 16:17:00,
2013-08-12 12:22:00,74.4,60.5,29.98,NNW,346,0.0,0.0,62,0.00,,---,0.00,1079.00,VWS V14.01,2013-08-12 16:22:00,
2013-08-12 12:27:00,73.9,60.1,29.98,NNE,30,0.0,0.0,62,0.00,,---,0.00,283.00,VWS V14.01,2013-08-12 16:27:00,
2013-08-12 12:32:00,72.3,59.0,29.98,NNE,30,0.0,0.0,63,0.00,,---,0.00,144.00,VWS V14.01,2013-08-12 16:32:00,
2013-08-12 12:37:00,71.5,57.8,29.98,NNE,30,0.0,0.0,62,0.00,,---,0.00,267.00,VWS V14.01,2013-08-12 16:37:00,
2013-08-12 12:42:00,72.3,58.6,29.98,NNE,30,0.0,0.0,62,0.00,,---,0.00,244.00,VWS V14.01,2013-08-12 16:42:00,
2013-08-12 12:47:00,72.5,54.4,29.98,NNE,30,0.0,0.0,53,0.00,,---,0.00,1144.00,VWS V14.01,2013-08-12 16:47:00,
2013-08-12 12:52:00,73.7,57.0,29.98,NNE,30,0.0,0.0,56,0.00,,---,0.00,1100.00,VWS V14.01,2013-08-12 16:52:00,
2013-08-12 12:57:00,74.4,57.7,29.98,North,5,0.0,1.0,56,0.00,,---,0.00,1113.00,VWS V14.01,2013-08-12 16:57:00,
2013-08-12 13:02:00,74.7,57.5,29.98,NW,323,0.0,1.0,55,0.00,,---,0.00,1027.00,VWS V14.01,2013-08-12 17:02:00,
2013-08-12 13:07:00,74.9,55.6,29.98,NW,324,0.0,1.0,51,0.00,,---,0.00,232.00,VWS V14.01,2013-08-12 17:07:00,
2013-08-12 13:12:00,74.6,57.9,29.97,NW,325,0.0,1.0,56,0.00,,---,0.00,1018.00,VWS V14.01,2013-08-12 17:12:00,
2013-08-12 13:17:00,74.7,59.0,29.97,NW,324,0.0,1.0,58,0.00,,---,0.00,983.00,VWS V14.01,2013-08-12 17:17:00,
2013-08-12 13:22:00,75.4,56.6,29.97,West,269,0.0,2.0,52,0.00,,---,0.00,977.00,VWS V14.01,2013-08-12 17:22:00,
2013-08-12 13:27:00,75.6,57.3,29.97,West,271,0.0,2.0,53,0.00,,---,0.00,1000.00,VWS V14.01,2013-08-12 17:27:00,
2013-08-12 13:32:00,75.6,53.4,29.96,NNE,33,0.0,0.0,46,0.00,,---,0.00,1048.00,VWS V14.01,2013-08-12 17:32:00,
2013-08-12 13:37:00,75.8,55.9,29.96,NNE,16,0.0,0.0,50,0.00,,---,0.00,1081.00,VWS V14.01,2013-08-12 17:37:00,
2013-08-12 13:42:00,76.7,58.3,29.96,North,11,0.0,1.0,53,0.00,,---,0.00,1023.00,VWS V14.01,2013-08-12 17:42:00,
2013-08-12 13:47:00,76.5,55.4,29.96,NNE,15,0.0,1.0,48,0.00,,---,0.00,972.00,VWS V14.01,2013-08-12 17:47:00,
2013-08-12 13:52:00,76.7,58.8,29.96,NNW,338,0.0,1.0,54,0.00,,---,0.00,921.00,VWS V14.01,2013-08-12 17:52:00,
2013-08-12 13:57:00,76.0,57.7,29.96,NW,311,0.0,1.0,53,0.00,,---,0.00,962.00,VWS V14.01,2013-08-12 17:57:00,
2013-08-12 14:02:00,76.0,58.2,29.96,NW,315,0.0,1.0,54,0.00,,---,0.00,962.00,VWS V14.01,2013-08-12 18:02:00,
2013-08-12 14:07:00,76.5,57.6,29.96,NW,315,0.0,0.0,52,0.00,,---,0.00,930.00,VWS V14.01,2013-08-12 18:07:00,
2013-08-12 14:12:00,76.5,55.9,29.96,East,94,0.0,2.0,49,0.00,,---,0.00,918.00,VWS V14.01,2013-08-12 18:12:00,
2013-08-12 14:17:00,76.3,59.0,29.96,ESE,114,0.0,2.0,55,0.00,,---,0.00,388.00,VWS V14.01,2013-08-12 18:17:00,
2013-08-12 14:22:00,76.7,59.8,29.96,SE,124,0.0,6.0,56,0.00,,---,0.00,1044.00,VWS V14.01,2013-08-12 18:22:00,
2013-08-12 14:27:00,76.5,55.9,29.95,SE,125,0.0,6.0,49,0.00,,---,0.00,932.00,VWS V14.01,2013-08-12 18:27:00,
2013-08-12 14:32:00,76.8,57.9,29.96,SE,140,1.0,6.0,52,0.00,,---,0.00,937.00,VWS V14.01,2013-08-12 18:32:00,
2013-08-12 14:37:00,77.4,57.9,29.96,SE,126,0.0,3.0,51,0.00,,---,0.00,977.00,VWS V14.01,2013-08-12 18:37:00,
2013-08-12 14:42:00,76.3,57.4,29.95,SE,145,0.0,3.0,52,0.00,,---,0.00,898.00,VWS V14.01,2013-08-12 18:42:00,
2013-08-12 14:47:00,76.5,56.5,29.95,WSW,246,0.0,0.0,50,0.00,,---,0.00,860.00,VWS V14.01,2013-08-12 18:47:00,
2013-08-12 14:52:00,76.3,56.9,29.95,WSW,246,0.0,0.0,51,0.00,,---,0.00,853.00,VWS V14.01,2013-08-12 18:52:00,
2013-08-12 14:57:00,76.7,59.3,29.95,WSW,258,0.0,2.0,55,0.00,,---,0.00,838.00,VWS V14.01,2013-08-12 18:57:00,
2013-08-12 15:02:00,76.1,58.3,29.95,SE,136,4.0,4.0,54,0.00,,---,0.00,849.00,VWS V14.01,2013-08-12 19:02:00,
2013-08-12 15:07:00,76.8,56.8,29.94,SSE,165,0.0,4.0,50,0.00,,---,0.00,846.00,VWS V14.01,2013-08-12 19:07:00,
2013-08-12 15:12:00,76.7,58.3,29.94,SSE,165,0.0,4.0,53,0.00,,---,0.00,807.00,VWS V14.01,2013-08-12 19:12:00,
2013-08-12 15:17:00,76.3,59.0,29.95,SSE,165,0.0,0.0,55,0.00,,---,0.00,784.00,VWS V14.01,2013-08-12 19:17:00,
2013-08-12 15:22:00,76.0,58.7,29.94,SW,234,0.0,1.0,55,0.00,,---,0.00,763.00,VWS V14.01,2013-08-12 19:22:00,
2013-08-12 15:27:00,76.3,57.9,29.94,SW,230,0.0,1.0,53,0.00,,---,0.00,761.00,VWS V14.01,2013-08-12 19:27:00,
2013-08-12 15:32:00,76.0,56.6,29.94,SW,230,0.0,0.0,51,0.00,,---,0.00,766.00,VWS V14.01,2013-08-12 19:32:00,
2013-08-12 15:37:00,76.0,56.6,29.94,SW,230,0.0,0.0,51,0.00,,---,0.00,758.00,VWS V14.01,2013-08-12 19:37:00,
2013-08-12 15:42:00,76.3,57.4,29.94,SW,230,0.0,0.0,52,0.00,,---,0.00,722.00,VWS V14.01,2013-08-12 19:42:00,
2013-08-12 15:47:00,76.0,56.0,29.94,SW,227,0.0,0.0,50,0.00,,---,0.00,700.00,VWS V14.01,2013-08-12 19:47:00,
2013-08-12 15:52:00,76.1,57.8,29.94,SW,219,0.0,1.0,53,0.00,,---,0.00,77.00,VWS V14.01,2013-08-12 19:52:00,
2013-08-12 15:57:00,76.0,58.2,29.94,SW,219,0.0,1.0,54,0.00,,---,0.00,74.00,VWS V14.01,2013-08-12 19:57:00,
2013-08-12 16:02:00,75.3,60.0,29.94,SW,219,0.0,0.0,59,0.00,,---,0.00,77.00,VWS V14.01,2013-08-12 20:02:00,
2013-08-12 16:07:00,74.6,60.3,29.93,SW,219,0.0,0.0,61,0.00,,---,0.00,62.00,VWS V14.01,2013-08-12 20:07:00,
2013-08-12 16:12:00,74.4,58.7,29.94,SW,219,0.0,1.0,58,0.00,,---,0.00,137.00,VWS V14.01,2013-08-12 20:12:00,
2013-08-12 16:17:00,75.3,54.8,29.94,NE,46,0.0,0.0,49,0.00,,---,0.00,135.00,VWS V14.01,2013-08-12 20:17:00,
2013-08-12 16:22:00,74.6,58.4,29.93,NE,46,0.0,0.0,57,0.00,,---,0.00,144.00,VWS V14.01,2013-08-12 20:22:00,
2013-08-12 16:27:00,74.6,59.3,29.93,NE,46,0.0,0.0,59,0.00,,---,0.00,190.00,VWS V14.01,2013-08-12 20:27:00,
2013-08-12 16:32:00,74.6,58.9,29.93,NE,46,0.0,0.0,58,0.00,,---,0.00,135.00,VWS V14.01,2013-08-12 20:32:00,
2013-08-12 16:37:00,75.4,59.1,29.93,NE,46,0.0,0.0,57,0.00,,---,0.00,114.00,VWS V14.01,2013-08-12 20:37:00,
2013-08-12 16:42:00,75.1,58.3,29.93,NE,46,0.0,0.0,56,0.00,,---,0.00,139.00,VWS V14.01,2013-08-12 20:42:00,
2013-08-12 16:47:00,75.8,60.0,29.93,NE,46,0.0,0.0,58,0.00,,---,0.00,105.00,VWS V14.01,2013-08-12 20:47:00,
2013-08-12 16:52:00,75.6,56.8,29.93,NE,46,0.0,0.0,52,0.00,,---,0.00,76.00,VWS V14.01,2013-08-12 20:52:00,
2013-08-12 16:57:00,75.4,59.6,29.93,NE,46,0.0,0.0,58,0.00,,---,0.00,63.00,VWS V14.01,2013-08-12 20:57:00,
2013-08-12 17:02:00,74.2,59.0,29.93,NE,46,0.0,0.0,59,0.00,,---,0.00,58.00,VWS V14.01,2013-08-12 21:02:00,
2013-08-12 17:07:00,74.4,59.6,29.93,NE,46,0.0,0.0,60,0.00,,---,0.00,54.00,VWS V14.01,2013-08-12 21:07:00,
2013-08-12 17:12:00,74.2,58.0,29.93,NE,46,0.0,0.0,57,0.00,,---,0.00,56.00,VWS V14.01,2013-08-12 21:12:00,
2013-08-12 17:17:00,74.0,58.8,29.93,NE,46,0.0,0.0,59,0.00,,---,0.00,58.00,VWS V14.01,2013-08-12 21:17:00,
2013-08-12 17:22:00,74.6,58.9,29.93,NE,46,0.0,0.0,58,0.00,,---,0.00,69.00,VWS V14.01,2013-08-12 21:22:00,
2013-08-12 17:27:00,74.6,58.4,29.93,NE,46,0.0,0.0,57,0.00,,---,0.00,62.00,VWS V14.01,2013-08-12 21:27:00,
2013-08-12 17:32:00,74.7,58.5,29.93,NE,46,0.0,0.0,57,0.00,,---,0.00,58.00,VWS V14.01,2013-08-12 21:32:00,
2013-08-12 17:37:00,74.4,58.7,29.93,NE,46,0.0,0.0,58,0.00,,---,0.00,81.00,VWS V14.01,2013-08-12 21:37:00,
2013-08-12 17:42:00,74.0,57.8,29.93,NE,46,0.0,0.0,57,0.00,,---,0.00,116.00,VWS V14.01,2013-08-12 21:42:00,
2013-08-12 17:47:00,73.7,59.4,29.93,NE,46,0.0,0.0,61,0.00,,---,0.00,95.00,VWS V14.01,2013-08-12 21:47:00,
2013-08-12 17:52:00,73.3,59.5,29.93,NE,46,0.0,0.0,62,0.00,,---,0.00,179.00,VWS V14.01,2013-08-12 21:52:00,
2013-08-12 17:58:00,73.2,59.9,29.92,NE,46,0.0,0.0,63,0.00,,---,0.00,98.00,VWS V14.01,2013-08-12 21:58:00,
2013-08-12 18:03:00,72.8,61.6,29.92,NE,46,0.0,0.0,68,0.00,,---,0.00,74.00,VWS V14.01,2013-08-12 22:03:00,
2013-08-12 18:08:00,72.7,61.1,29.92,NE,46,0.0,0.0,67,0.00,,---,0.00,65.00,VWS V14.01,2013-08-12 22:08:00,
2013-08-12 18:13:00,72.5,61.8,29.92,NE,46,0.0,0.0,69,0.00,,---,0.00,69.00,VWS V14.01,2013-08-12 22:13:00,
2013-08-12 18:18:00,72.7,62.0,29.92,NE,46,0.0,0.0,69,0.00,,---,0.00,81.00,VWS V14.01,2013-08-12 22:18:00,
2013-08-12 18:23:00,73.0,61.4,29.92,NE,46,0.0,0.0,67,0.00,,---,0.00,90.00,VWS V14.01,2013-08-12 22:23:00,
2013-08-12 18:28:00,73.3,61.3,29.92,NE,46,0.0,0.0,66,0.00,,---,0.00,79.00,VWS V14.01,2013-08-12 22:28:00,
2013-08-12 18:33:00,73.5,61.0,29.92,NE,46,0.0,0.0,65,0.00,,---,0.00,88.00,VWS V14.01,2013-08-12 22:33:00,
2013-08-12 18:38:00,73.3,61.3,29.92,NE,46,0.0,0.0,66,0.00,,---,0.00,44.00,VWS V14.01,2013-08-12 22:38:00,
2013-08-12 18:43:00,73.0,61.0,29.92,NE,46,0.0,0.0,66,0.00,,---,0.00,19.00,VWS V14.01,2013-08-12 22:43:00,
2013-08-12 18:48:00,72.5,60.5,29.92,NE,46,0.0,0.0,66,0.00,,---,0.00,19.00,VWS V14.01,2013-08-12 22:48:00,
2013-08-12 18:53:00,71.8,60.3,29.92,NE,46,0.0,0.0,67,0.00,,---,0.00,26.00,VWS V14.01,2013-08-12 22:53:00,
2013-08-12 18:58:00,71.5,60.8,29.92,NE,46,0.0,0.0,69,0.00,,---,0.00,28.00,VWS V14.01,2013-08-12 22:58:00,
2013-08-12 19:03:00,71.1,61.6,29.92,NE,46,0.0,0.0,72,0.00,,---,0.00,25.00,VWS V14.01,2013-08-12 23:03:00,
2013-08-12 19:08:00,70.8,61.7,29.92,NE,47,0.0,0.0,73,0.00,,---,0.00,30.00,VWS V14.01,2013-08-12 23:08:00,
2013-08-12 19:13:00,70.4,61.3,29.92,NE,47,0.0,0.0,73,0.00,,---,0.00,28.00,VWS V14.01,2013-08-12 23:13:00,
2013-08-12 19:18:00,70.4,61.3,29.92,NE,47,0.0,0.0,73,0.00,,---,0.00,19.00,VWS V14.01,2013-08-12 23:18:00,
2013-08-12 19:23:00,69.9,61.2,29.92,NE,47,0.0,0.0,74,0.00,,---,0.00,12.00,VWS V14.01,2013-08-12 23:23:00,
2013-08-12 19:28:00,69.8,60.4,29.92,NE,47,0.0,0.0,72,0.00,,---,0.00,7.00,VWS V14.01,2013-08-12 23:28:00,
2013-08-12 19:33:00,69.4,60.4,29.92,NE,47,0.0,0.0,73,0.00,,---,0.00,5.00,VWS V14.01,2013-08-12 23:33:00,
2013-08-12 19:38:00,69.1,60.1,29.92,NE,47,0.0,0.0,73,0.00,,---,0.00,7.00,VWS V14.01,2013-08-12 23:38:00,
2013-08-12 19:43:00,68.6,60.7,29.92,NE,47,0.0,0.0,76,0.00,,---,0.00,5.00,VWS V14.01,2013-08-12 23:43:00,
2013-08-12 19:48:00,68.3,60.5,29.92,NE,47,0.0,0.0,76,0.00,,---,0.00,0.00,VWS V14.01,2013-08-12 23:48:00,
2013-08-12 19:53:00,68.1,60.6,29.92,NE,47,0.0,0.0,77,0.00,,---,0.00,0.00,VWS V14.01,2013-08-12 23:53:00,
2013-08-12 19:58:00,67.8,60.3,29.92,NE,47,0.0,0.0,77,0.00,,---,0.00,0.00,VWS V14.01,2013-08-12 23:58:00,
2013-08-12 20:03:00,67.6,60.1,29.93,NE,47,0.0,0.0,77,0.00,,---,0.00,0.00,VWS V14.01,2013-08-13 00:03:00,
2013-08-12 20:08:00,67.3,60.2,29.92,NE,47,0.0,0.0,78,0.00,,---,0.00,0.00,VWS V14.01,2013-08-13 00:08:00,
2013-08-12 20:09:00,67.3,60.2,29.92,NE,47,0.0,0.0,78,0.00,,---,0.00,0.00,VWS V14.01,2013-08-13 00:09:00,
2013-08-12 20:14:00,66.6,59.9,29.92,NE,47,0.0,0.0,79,0.00,,---,0.00,0.00,VWS V14.01,2013-08-13 00:14:00,
2013-08-12 20:15:00,66.6,59.9,29.92,NE,47,0.0,0.0,79,0.00,,---,0.00,0.00,VWS V14.01,2013-08-13 00:15:00,
2013-08-12 20:20:00,66.3,59.6,29.93,NE,47,0.0,0.0,79,0.00,,---,0.00,0.00,VWS V14.01,2013-08-13 00:20:00,
2013-08-12 20:25:00,66.0,60.0,29.92,NE,47,0.0,0.0,81,0.00,,---,0.00,0.00,VWS V14.01,2013-08-13 00:25:00,
2013-08-12 20:30:00,65.6,59.3,29.93,NE,47,0.0,0.0,80,0.00,,---,0.00,0.00,VWS V14.01,2013-08-13 00:30:00,
2013-08-12 20:35:00,65.8,59.8,29.93,NE,47,0.0,0.0,81,0.00,,---,0.00,0.00,VWS V14.01,2013-08-13 00:35:00,
2013-08-12 20:40:00,65.6,59.6,29.93,NE,47,0.0,0.0,81,0.00,,---,0.00,0.00,VWS V14.01,2013-08-13 00:40:00,
2013-08-12 20:45:00,65.8,59.8,29.93,NE,47,0.0,0.0,81,0.00,,---,0.00,0.00,VWS V14.01,2013-08-13 00:45:00,
2013-08-12 20:50:00,65.8,59.8,29.94,NE,47,0.0,0.0,81,0.00,,---,0.00,0.00,VWS V14.01,2013-08-13 00:50:00,
2013-08-12 20:55:00,65.8,59.5,29.94,NE,47,0.0,0.0,80,0.00,,---,0.00,0.00,VWS V14.01,2013-08-13 00:55:00,
2013-08-12 21:00:00,66.0,58.6,29.94,NE,47,0.0,0.0,77,0.00,,---,0.00,0.00,VWS V14.01,2013-08-13 01:00:00,
2013-08-12 21:05:00,66.0,59.0,29.93,NE,47,0.0,0.0,78,0.00,,---,0.00,0.00,VWS V14.01,2013-08-13 01:05:00,
2013-08-12 21:10:00,65.6,58.6,29.93,NE,47,0.0,0.0,78,0.00,,---,0.00,0.00,VWS V14.01,2013-08-13 01:10:00,
2013-08-12 21:15:00,65.5,58.5,29.94,NE,47,0.0,0.0,78,0.00,,---,0.00,0.00,VWS V14.01,2013-08-13 01:15:00,
2013-08-12 21:20:00,65.2,57.5,29.94,NE,47,0.0,0.0,76,0.00,,---,0.00,0.00,VWS V14.01,2013-08-13 01:20:00,
2013-08-12 21:25:00,64.8,57.8,29.94,NE,47,0.0,0.0,78,0.00,,---,0.00,0.00,VWS V14.01,2013-08-13 01:25:00,
2013-08-12 21:30:00,64.5,57.1,29.93,NE,47,0.0,0.0,77,0.00,,---,0.00,0.00,VWS V14.01,2013-08-13 01:30:00,
2013-08-12 21:35:00,64.0,57.0,29.93,NE,47,0.0,0.0,78,0.00,,---,0.00,0.00,VWS V14.01,2013-08-13 01:35:00,
2013-08-12 21:40:00,63.9,57.3,29.93,NE,47,0.0,0.0,79,0.00,,---,0.00,0.00,VWS V14.01,2013-08-13 01:40:00,
2013-08-12 21:45:00,63.7,58.1,29.93,NE,47,0.0,0.0,82,0.00,,---,0.00,0.00,VWS V14.01,2013-08-13 01:45:00,
2013-08-12 21:50:00,63.7,59.1,29.93,NE,47,0.0,0.0,85,0.00,,---,0.00,0.00,VWS V14.01,2013-08-13 01:50:00,
2013-08-12 21:55:00,63.5,59.2,29.93,NE,47,0.0,0.0,86,0.00,,---,0.00,0.00,VWS V14.01,2013-08-13 01:55:00,
2013-08-12 22:00:00,63.4,59.2,29.93,NE,47,0.0,0.0,86,0.00,,---,0.00,0.00,VWS V14.01,2013-08-13 02:00:00,
2013-08-12 22:05:00,63.2,59.3,29.93,NE,47,0.0,0.0,87,0.00,,---,0.00,0.00,VWS V14.01,2013-08-13 02:05:00,
2013-08-12 22:10:00,63.1,59.2,29.93,NE,47,0.0,0.0,87,0.00,,---,0.00,0.00,VWS V14.01,2013-08-13 02:10:00,
2013-08-12 22:15:00,62.9,59.0,29.93,NE,47,0.0,0.0,87,0.00,,---,0.00,0.00,VWS V14.01,2013-08-13 02:15:00,
2013-08-12 22:20:00,62.7,58.5,29.93,NE,47,0.0,0.0,86,0.00,,---,0.00,0.00,VWS V14.01,2013-08-13 02:20:00,
2013-08-12 22:25:00,62.7,58.5,29.93,NE,47,0.0,0.0,86,0.00,,---,0.00,0.00,VWS V14.01,2013-08-13 02:25:00,
2013-08-12 22:30:00,62.3,58.1,29.93,NE,47,0.0,0.0,86,0.00,,---,0.00,0.00,VWS V14.01,2013-08-13 02:30:00,
2013-08-12 22:35:00,62.3,58.1,29.93,NE,47,0.0,0.0,86,0.00,,---,0.00,0.00,VWS V14.01,2013-08-13 02:35:00,
2013-08-12 22:40:00,62.1,57.9,29.93,NE,47,0.0,0.0,86,0.00,,---,0.00,0.00,VWS V14.01,2013-08-13 02:40:00,
2013-08-12 22:45:00,61.8,57.2,29.93,NE,47,0.0,0.0,85,0.00,,---,0.00,0.00,VWS V14.01,2013-08-13 02:45:00,
2013-08-12 22:50:00,61.6,57.0,29.93,NE,47,0.0,0.0,85,0.00,,---,0.00,0.00,VWS V14.01,2013-08-13 02:50:00,
2013-08-12 22:55:00,61.6,57.0,29.93,NE,47,0.0,0.0,85,0.00,,---,0.00,0.00,VWS V14.01,2013-08-13 02:55:00,
2013-08-12 23:00:00,61.6,57.4,29.93,NE,47,0.0,0.0,86,0.00,,---,0.00,0.00,VWS V14.01,2013-08-13 03:00:00,
2013-08-12 23:05:00,61.5,57.6,29.93,NE,47,0.0,0.0,87,0.00,,---,0.00,0.00,VWS V14.01,2013-08-13 03:05:00,
2013-08-12 23:10:00,61.5,57.9,29.93,NE,47,0.0,0.0,88,0.00,,---,0.00,0.00,VWS V14.01,2013-08-13 03:10:00,
2013-08-12 23:15:00,61.3,57.7,29.93,NE,47,0.0,0.0,88,0.00,,---,0.00,0.00,VWS V14.01,2013-08-13 03:15:00,
2013-08-12 23:20:00,61.2,57.6,29.92,NE,47,0.0,0.0,88,0.00,,---,0.00,0.00,VWS V14.01,2013-08-13 03:20:00,
2013-08-12 23:25:00,61.0,57.4,29.92,NE,47,0.0,0.0,88,0.00,,---,0.00,0.00,VWS V14.01,2013-08-13 03:25:00,
2013-08-12 23:30:00,60.9,57.6,29.92,NE,47,0.0,0.0,89,0.00,,---,0.00,0.00,VWS V14.01,2013-08-13 03:30:00,
2013-08-12 23:35:00,60.9,57.3,29.93,NE,47,0.0,0.0,88,0.00,,---,0.00,0.00,VWS V14.01,2013-08-13 03:35:00,
2013-08-12 23:40:00,60.5,56.9,29.92,NE,47,0.0,0.0,88,0.00,,---,0.00,0.00,VWS V14.01,2013-08-13 03:40:00,
2013-08-12 23:45:00,60.5,57.2,29.92,NE,47,0.0,0.0,89,0.00,,---,0.00,0.00,VWS V14.01,2013-08-13 03:45:00,
2013-08-12 23:52:00,60.4,57.2,29.92,NE,47,0.0,0.0,89,0.00,,---,0.00,0.00,VWS V14.01,2013-08-13 03:52:00,
2013-08-12 23:57:00,60.2,57.0,29.92,NE,47,0.0,0.0,89,0.00,,---,0.00,0.00,VWS V14.01,2013-08-13 03:57:00,